Terminal Aerodrome Forecast
Issued by NWS

Home | Current Version | Previous Version | Text Only | Print | Product List | Glossary On
Versions: 1 2 3 4 5 6 7 8 9 10 11 12 13 14 15 16 17 18 19 20 21 22 23
000
FTUS41 KPBZ 020521
TAFHLG
TAF
KHLG 020521Z 0206/0306 VRB03KT P6SM VCSH OVC080
     FM020800 VRB03KT 2SM -SHRA VCTS OVC025CB
     FM021000 24008KT P6SM OVC015
     FM021500 27010G20KT P6SM BKN025
     FM021700 29012KT P6SM BKN035
     FM030000 35005KT P6SM BKN040=

USA.gov is the U.S. government's official web portal to all federal, state and local government web resources and services.